Location: The Rolnick Observatory
(41.1711°N, 73.3275°W)
Time: 22:43:48
(UTC-04:00)

Envisat - Pass Details

Date: 17 February 2019
Orbit: 764 x 766 km, 98.2° (Epoch: 25 April)

Event Time Altitude Azimuth Distance (km) Brightness Sun altitude
Rises 19:01:15 0° 181° (S) 3,216 6.3 -17.9°
Reaches altitude 10° 19:03:38 10° 187° (S) 2,295 5.5 -18.3°
Maximum altitude 19:08:29 47° 261° (W) 1,012 4.1 -19.2°
Drops below altitude 10° 19:13:24 10° 335° (NNW) 2,312 5.8 -20.1°
Sets 19:15:48 0° 341° (NNW) 3,243 6.5 -20.6°
